TimeCDT,TemperatureF,Dew PointF,Humidity,Sea Level PressureIn,VisibilityMPH,Wind Direction,Wind SpeedMPH,Gust SpeedMPH,PrecipitationIn,Events,Conditions,WindDirDegrees,DateUTC
12:54 AM,64.9,55.0,70,29.96,10.0,South,9.2,-,N/A,,Clear,180,2013-07-04 05:54:00
1:54 AM,64.9,53.1,65,29.97,10.0,South,8.1,-,N/A,,Clear,180,2013-07-04 06:54:00
2:54 AM,63.0,52.0,67,29.96,10.0,South,6.9,-,N/A,,Clear,190,2013-07-04 07:54:00
3:54 AM,59.0,52.0,78,29.97,10.0,South,6.9,-,N/A,,Clear,170,2013-07-04 08:54:00
4:54 AM,57.0,52.0,83,29.97,10.0,SSE,6.9,-,N/A,,Clear,160,2013-07-04 09:54:00
5:54 AM,57.9,52.0,81,29.97,10.0,SSE,4.6,-,N/A,,Partly Cloudy,160,2013-07-04 10:54:00
6:54 AM,60.1,53.1,78,29.97,10.0,SSE,3.5,-,N/A,,Clear,160,2013-07-04 11:54:00
7:54 AM,64.0,55.0,73,29.98,10.0,South,6.9,-,N/A,,Clear,170,2013-07-04 12:54:00
8:54 AM,71.1,55.9,59,29.97,10.0,South,10.4,-,N/A,,Partly Cloudy,180,2013-07-04 13:54:00
9:54 AM,73.9,55.9,53,29.97,10.0,SSW,10.4,-,N/A,,Partly Cloudy,200,2013-07-04 14:54:00
10:54 AM,77.0,57.0,50,29.97,10.0,South,11.5,-,N/A,,Scattered Clouds,190,2013-07-04 15:54:00
11:54 AM,80.1,59.0,48,29.96,10.0,South,13.8,-,N/A,,Clear,180,2013-07-04 16:54:00
12:54 PM,82.9,55.9,39,29.94,10.0,South,13.8,-,N/A,,Clear,170,2013-07-04 17:54:00
1:54 PM,81.0,55.0,41,29.93,10.0,SSW,13.8,-,N/A,,Mostly Cloudy,200,2013-07-04 18:54:00
2:54 PM,86.0,54.0,33,29.91,10.0,South,16.1,-,N/A,,Clear,190,2013-07-04 19:54:00
3:54 PM,86.0,53.1,32,29.91,10.0,South,17.3,25.3,N/A,,Clear,170,2013-07-04 20:54:00
4:54 PM,86.0,51.1,30,29.90,10.0,SSE,17.3,-,N/A,,Clear,160,2013-07-04 21:54:00
5:54 PM,84.9,53.1,33,29.89,10.0,SSE,15.0,24.2,N/A,,Clear,150,2013-07-04 22:54:00
6:54 PM,82.9,53.1,36,29.88,10.0,South,15.0,-,N/A,,Clear,180,2013-07-04 23:54:00
7:54 PM,80.1,53.1,39,29.87,10.0,SSE,11.5,-,N/A,,Clear,160,2013-07-05 00:54:00
8:54 PM,77.0,53.1,43,29.86,10.0,SSE,10.4,-,N/A,,Clear,160,2013-07-05 01:54:00
9:54 PM,73.0,55.0,53,29.88,9.0,South,4.6,-,N/A,,Clear,170,2013-07-05 02:54:00
10:54 PM,69.1,57.0,65,29.89,4.0,South,5.8,-,N/A,,Haze,180,2013-07-05 03:54:00
11:54 PM,69.1,57.0,65,29.89,8.0,South,10.4,-,N/A,,Clear,170,2013-07-05 04:54:00